STARLINK-33570 (62776 NORAD) Tracking and Keplerian Element Data

This shows tracking and keplerian element data for the satellite.

Feedback or suggestion? Click here.




ElementValue
Catalog62776
NameSTARLINK-33570
Epoch Orbit332
Epoch Day35.16668981
Epoch Year2025
RAAN19.0527
Inclination53.1599
Eccentricity0.0001253
Argument of Perigee78.3784
Mean Anonmoly103.8143
Mean Motion15.78380333
Decay Rate-0.01133275
L11 62776U 25015U 25035.16668981 -.01133275 00000+0 -71910-2 0 9994
L22 62776 53.1599 19.0527 0001253 78.3784 103.8143 15.78380333 3323



Live tracking and technical data element details for STARLINK-33570 (NORAD 62776). STARLINK-33570 can be tracked NOW for your location showing map with azimuth and elevation plus other details from your city location.







IsCatalogInMostPopularTable: catalog: 62776, numindb: 3
Update: records affected: 1



GetName: 62776 STARLINK-33570

Hit Count: updated at: Sun, 09 Feb 2025 15:18:15 GMT